Regional Weather Roundup
Issued by NWS

Home | Current Version | Previous Version | Graphics & Text | Print | Product List | Glossary On
Versions: 1 2 3 4 5 6 7 8 9 10 11 12 13 14 15 16 17 18 19 20 21 22 23 24 25 26 27 28 29 30 31 32 33 34 35 36 37 38 39 40 41 42 43 44 45 46 47 48 49 50
000
ASUS45 KBOU 291207
RWRCO

WEATHER ROUNDUP FOR COLORADO
NATIONAL WEATHER SERVICE DENVER/BOULDER CO
600 AM MDT TUE JUL 29 2014

NOTE: "FAIR" INDICATES FEW OR NO CLOUDS BELOW 12000 FEET WITH NO
SIGNIFICANT WEATHER AND/OR OBSTRUCTIONS TO VISIBILITY.

COZ001>005-013-030-031-291300-
...NORTHWEST COLORADO...

CITY           SKY/WX    TMP DP  RH WIND       PRES   REMARKS
CRAIG          CLOUDY    55  54  96 CALM      30.34R
HAYDEN         CLOUDY    57  46  67 SW3       30.35S
MEEKER         CLOUDY    62  53  72 E3        30.34F
MOUNT WERNER   NOT AVBL
STEAMBOAT SPGS CLOUDY    56  50  78 CALM      30.37R
WALDEN         MOCLDY    50  43  76 SE6       30.43S
$$

COZ006>008-011-291300-
...WEST CENTRAL VALLEYS...

CITY           SKY/WX    TMP DP  RH WIND       PRES   REMARKS
GRAND JUNCTION CLOUDY    62  60  93 E9        30.26S
MONTROSE       RAIN      62  60  93 S7        30.37S
EAGLE          MOCLDY    57  54  88 CALM      30.39S
RIFLE          LGT RAIN  62  60  93 E3        30.32R
DELTA          CLOUDY    63  61  94 NE5       30.33R
NUCLA          CLOUDY    59  57  94 SE7       30.37F
$$

COZ017>023-064>068-291300-
...SOUTHWEST COLORADO...

CITY           SKY/WX    TMP DP  RH WIND       PRES   REMARKS
DURANGO        CLOUDY    59  55  87 CALM      30.37S
CORTEZ         CLOUDY    61  61 100 CALM      30.33R
PAGOSA SPRINGS LGT RAIN  58  55  90 CALM      30.44S
TELLURIDE      LGT RAIN  52  52 100 CALM      30.53S
WOLF CREEK PAS NOT AVBL
$$

COZ009-010-012-014-032>034-037-058>063-291300-
...CENTRAL COLORADO...

CITY           SKY/WX    TMP DP  RH WIND       PRES   REMARKS
ASPEN          CLOUDY    54  51  90 CALM      30.44R
BUENA VISTA    MOCLDY    52  50  93 CALM      30.44S
COPPER MTN     CLOUDY    46  39  76 W14       30.69S
BERTHOUD PASS  CLOUDY    43  30  61 E6        30.74S
COTTONWOOD PAS MOCLDY    54  45  71 CALM      30.54F
GUNNISON       CLOUDY    55  52  88 CALM      30.47S
KREMMLING      CLOUDY    54  46  76 CALM      30.42S
LEADVILLE      CLOUDY    46  44  93 CALM      30.54S
MONARCH PASS   FOG       43  41  93 W22       30.77S VSB<1/4
SALIDA         MOCLDY    56  53  89 N6        30.48S
SUNLIGHT       CLOUDY    50  50 100 CALM      30.63R FOG
WILKERSON PASS MOCLDY    50  37  62 CALM      30.67S
$$

COZ069>075-291300-
...SAN LUIS VALLEY/SANGRE DE CRISTO MOUNTAINS...

CITY           SKY/WX    TMP DP  RH WIND       PRES   REMARKS
ALAMOSA        FOG       50  49  96 CALM      30.43R VSB 1/4
LA VETA PASS   FOG       48  46  93 SW9G16    30.54S VSB 1
SAGUACHE       PTCLDY    52  52 100 NW5       30.46R
$$

COZ035-036-038>040-291300-
...NORTHERN COLORADO FRONT RANGE...

CITY           SKY/WX    TMP DP  RH WIND       PRES   REMARKS
DENVER INTL AP PTCLDY    62  56  80 W8        30.24S
DMNS CITY PARK   N/A     61  55  79 W3        30.25S
AURORA         MOCLDY    60  55  83 SW5       30.27S
FRONT RANGE AP NOT AVBL
ERIE MUNI ARPT PTCLDY    59  56  90 SW6       30.24S
BOULDER MUN AP PTCLDY    63  57  82 CALM      30.25R
CENTENNIAL     PTCLDY    58  51  78 SW3       30.28R
BROOMFIELD     PTCLDY    61  55  82 NW3       30.28S
FORT COLLINS   PTCLDY    59  54  82 N6        30.25S
LONGMONT       PTCLDY    64  58  79 W3        30.25S
$$

COZ041-046-047-076>085-087-088-291300-
...PIKES PEAK/PALMER DIVIDE AND SOUTHERN FOOTHILLS...

CITY           SKY/WX    TMP DP  RH WIND       PRES   REMARKS
COLO. SPRINGS  PTCLDY    57  54  89 N7        30.31S
A. F. ACADEMY  CLEAR     52  52  99 N6        30.33R
ELLICOTT       FOG       58  58 100 E5        30.29S VSB 1/4
FALCON         CLEAR     55  54  94 CALM      30.35S
FORT CARSON    CLEAR     56  53  89 NW8       30.28S
LIMON          FOG       58  58 100 CALM      30.26S VSB 1/4
MONUMENT HILL  CLEAR     52  46  82 S5        30.34S
TRINIDAD       CLOUDY    62  58  86 SW8       30.29R
$$

COZ042>045-048>051-090-091-291300-
...NORTHEAST COLORADO...

CITY           SKY/WX    TMP DP  RH WIND       PRES   REMARKS
GREELEY ARPT   PTCLDY    59  52  77 CALM      30.23R
AKRON          CLEAR     62  57  83 S5        30.22S
BURLINGTON     PTCLDY    59  57  93 S8        30.21F
WRAY             N/A     63  58  86 CALM      30.19S
STERLING       CLEAR     63  61  94 NE6       30.19S
HOLYOKE        CLEAR     59  55  88 E3        30.21R FOG
FORT MORGAN    CLEAR     59  55  87 NE3       30.21F
$$

COZ086-089-092>099-291300-
...SOUTHEAST COLORADO...

CITY           SKY/WX    TMP DP  RH WIND       PRES   REMARKS
PUEBLO         CLOUDY    64  62  93 CALM      30.22R
LA JUNTA       PTCLDY    65  63  93 E3        30.19R FOG
LAMAR          PTCLDY    66  62  87 S14       30.17S FOG
SPRINGFIELD      N/A     64  63  96 S14       30.23S
$$



USA.gov is the U.S. government's official web portal to all federal, state and local government web resources and services.